Weather History for KBIJ - November, 2013

Change the Weather History Date:

Wednesday, November 13, 2013

  Actual Average (KDHN) Record (KDHN)
Temperature  
Mean Temperature 42 °F 59 °F  
Max Temperature 51 °F 72 °F 86 °F (1938)
Min Temperature 30 °F 47 °F 30 °F (1968)
Degree Days  
Heating Degree Days 24 6  
Month to date heating degree days 69  
Since 1 July heating degree days 128  
Moisture  
Dew Point 24 °F    
Average Humidity 57    
Maximum Humidity 93    
Minimum Humidity 28    
Precipitation  
Precipitation 0.00 in 0.14 in 1.92 in (1930)
Month to date precipitation 1.38  
Year to date precipitation 46.77  
Sea Level Pressure  
Sea Level Pressure 30.46 in    
Wind  
Wind Speed 7 mph (NE)    
Max Wind Speed 14 mph    
Max Gust Speed 26 mph    
Visibility 10 miles    
Events      
T = Trace of Precipitation, MM = Missing Value Source: NWS Daily Summary

Daily Weather History Graph

Daily Weather History Graph

Search for Another Location

Airport or City:

Trip Planner

Search our weather history database for the weather conditions in past years. The results will help you decide how hot, cold, wet, or windy it might be!

Date:

Astronomy

Nov. 13, 2013 Rise Set
Actual Time 7:05 AM EST 5:41 PM EST
Civil Twilight 6:39 AM EST 6:07 PM EST
Nautical Twilight 6:10 AM EST 6:36 PM EST
Astronomical Twilight 5:41 AM EST 7:05 PM EST
Moon 3:16 PM EST (11/13) 3:12 AM EST (11/13)
Length of Visible Light 11h 27m
Length of Day
10h 36m
Waxing Gibbous, 84% of the Moon is Illuminated
Nov 13
Waxing Gibbous
Nov 17
Full
Nov 25
Last Quarter
Dec 2
New
Dec 9
First Quarter

Hourly Weather History & Observations

Time (EST) Temp. Windchill Dew Point Humidity Pressure Visibility Wind Dir Wind Speed Gust Speed Precip Events Conditions
12:15 AM 39.2 °F 33.6 °F 24.8 °F 56% 30.40 in 10.0 mi NNE 8.1 mph - N/A   Clear
12:35 AM 37.4 °F 31.4 °F 24.8 °F 60% 30.40 in 10.0 mi North 8.1 mph - N/A   Clear
12:55 AM 37.4 °F 32.1 °F 24.8 °F 60% 30.40 in 10.0 mi North 6.9 mph - N/A   Clear
1:15 AM 37.4 °F 31.4 °F 23.0 °F 56% 30.40 in 10.0 mi NNE 8.1 mph - N/A   Clear
1:35 AM 37.4 °F 32.1 °F 23.0 °F 56% 30.40 in 10.0 mi North 6.9 mph - N/A   Clear
1:55 AM 37.4 °F 32.8 °F 23.0 °F 56% 30.40 in 10.0 mi North 5.8 mph - N/A   Clear
2:15 AM 35.6 °F 29.9 °F 23.0 °F 60% 30.40 in 10.0 mi NNE 6.9 mph - N/A   Clear
2:35 AM 35.6 °F 30.7 °F 23.0 °F 60% 30.40 in 10.0 mi NNE 5.8 mph - N/A   Clear
2:55 AM 35.6 °F 30.7 °F 23.0 °F 60% 30.40 in 10.0 mi NNE 5.8 mph - N/A   Clear
3:15 AM 35.6 °F 29.9 °F 23.0 °F 60% 30.40 in 10.0 mi NNE 6.9 mph - N/A   Clear
3:35 AM 35.6 °F 30.7 °F 23.0 °F 60% 30.40 in 10.0 mi NNE 5.8 mph - N/A   Clear
3:55 AM 35.6 °F 29.9 °F 23.0 °F 60% 30.40 in 10.0 mi NNE 6.9 mph - N/A   Clear
4:15 AM 35.6 °F 31.7 °F 23.0 °F 60% 30.41 in 10.0 mi NNE 4.6 mph - N/A   Clear
4:35 AM 35.6 °F 30.7 °F 23.0 °F 60% 30.42 in 10.0 mi NNE 5.8 mph - N/A   Clear
4:55 AM 33.8 °F 29.6 °F 23.0 °F 65% 30.42 in 10.0 mi NNE 4.6 mph - N/A   Clear
5:15 AM 33.8 °F 27.7 °F 23.0 °F 65% 30.43 in 10.0 mi NNE 6.9 mph - N/A   Clear
5:35 AM 33.8 °F 28.6 °F 24.8 °F 70% 30.43 in 10.0 mi NE 5.8 mph - N/A   Clear
5:55 AM 33.8 °F 27.7 °F 23.0 °F 65% 30.44 in 10.0 mi NNE 6.9 mph - N/A   Clear
6:15 AM 33.8 °F 28.6 °F 23.0 °F 65% 30.44 in 10.0 mi NNE 5.8 mph - N/A   Clear
6:35 AM 33.8 °F 28.6 °F 23.0 °F 65% 30.45 in 10.0 mi NE 5.8 mph - N/A   Clear
6:55 AM 33.8 °F 28.6 °F 23.0 °F 65% 30.46 in 10.0 mi NNE 5.8 mph - N/A   Clear
7:15 AM 33.8 °F 26.4 °F 23.0 °F 65% 30.48 in 10.0 mi NE 9.2 mph - N/A   Clear
7:35 AM 33.8 °F 27.7 °F 23.0 °F 65% 30.49 in 10.0 mi NE 6.9 mph - N/A   Clear
7:55 AM 33.8 °F 27.7 °F 23.0 °F 65% 30.50 in 10.0 mi NE 6.9 mph - N/A   Clear
8:15 AM 35.6 °F 28.6 °F 23.0 °F 60% 30.50 in 10.0 mi NE 9.2 mph - N/A   Clear
8:35 AM 35.6 °F 28.0 °F 21.2 °F 56% 30.51 in 10.0 mi NE 10.4 mph 17.3 mph N/A   Clear
8:55 AM 37.4 °F 29.3 °F 21.2 °F 52% 30.51 in 10.0 mi ENE 12.7 mph 26.5 mph N/A   Clear
9:15 AM 37.4 °F 29.3 °F 21.2 °F 52% 30.52 in 10.0 mi ENE 12.7 mph 23.0 mph N/A   Clear
9:35 AM 37.4 °F 29.8 °F 21.2 °F 52% 30.52 in 10.0 mi ENE 11.5 mph 21.9 mph N/A   Clear
9:55 AM 41.0 °F 33.9 °F 21.2 °F 45% 30.51 in 10.0 mi NE 12.7 mph 21.9 mph N/A   Clear
10:15 AM 41.0 °F 34.3 °F 21.2 °F 45% 30.52 in 10.0 mi ENE 11.5 mph 20.7 mph N/A   Clear
10:35 AM 42.8 °F 35.8 °F 21.2 °F 42% 30.51 in 10.0 mi ENE 13.8 mph 24.2 mph N/A   Clear
10:55 AM 44.6 °F 38.8 °F 23.0 °F 43% 30.51 in 10.0 mi NNE 11.5 mph 20.7 mph N/A   Clear
11:15 AM 44.6 °F 38.4 °F 23.0 °F 43% 30.51 in 10.0 mi NE 12.7 mph 19.6 mph N/A   Clear
11:35 AM 44.6 °F 39.2 °F 23.0 °F 43% 30.51 in 10.0 mi NNE 10.4 mph 17.3 mph N/A   Clear
11:55 AM 46.4 °F 41.1 °F 23.0 °F 40% 30.51 in 10.0 mi ENE 11.5 mph 19.6 mph N/A   Clear
12:15 PM 46.4 °F 41.5 °F 23.0 °F 40% 30.50 in 10.0 mi ENE 10.4 mph 17.3 mph N/A   Clear
12:35 PM 48.2 °F - 21.2 °F 34% 30.49 in 10.0 mi NNE 10.4 mph 16.1 mph N/A   Clear
12:55 PM 50.0 °F - 21.2 °F 32% 30.48 in 10.0 mi NE 11.5 mph 19.6 mph N/A   Clear
1:15 PM 50.0 °F - 21.2 °F 32% 30.47 in 10.0 mi East 11.5 mph 17.3 mph N/A   Clear
1:35 PM 50.0 °F - 21.2 °F 32% 30.47 in 10.0 mi ENE 13.8 mph 19.6 mph N/A   Clear
1:55 PM 51.8 °F - 19.4 °F 28% 30.46 in 10.0 mi NNE 9.2 mph 23.0 mph N/A   Clear
2:15 PM 51.8 °F - 21.2 °F 30% 30.46 in 10.0 mi East 13.8 mph 17.3 mph N/A   Clear
2:35 PM 51.8 °F - 19.4 °F 28% 30.45 in 10.0 mi NNE 8.1 mph 16.1 mph N/A   Clear
2:55 PM 51.8 °F - 21.2 °F 30% 30.45 in 10.0 mi NE 9.2 mph 17.3 mph N/A   Clear
3:15 PM 51.8 °F - 21.2 °F 30% 30.45 in 10.0 mi NE 10.4 mph - N/A   Clear
3:35 PM 51.8 °F - 21.2 °F 30% 30.45 in 10.0 mi NE 8.1 mph - N/A   Clear
3:55 PM 51.8 °F - 21.2 °F 30% 30.44 in 10.0 mi NNE 8.1 mph - N/A   Clear
4:15 PM 51.8 °F - 21.2 °F 30% 30.44 in 10.0 mi ENE 10.4 mph 16.1 mph N/A   Clear
4:35 PM 51.8 °F - 21.2 °F 30% 30.44 in 10.0 mi ENE 6.9 mph - N/A   Clear
4:55 PM 50.0 °F - 21.2 °F 32% 30.44 in 10.0 mi NE 6.9 mph - N/A   Clear
5:15 PM 50.0 °F - 21.2 °F 32% 30.45 in 10.0 mi NE 5.8 mph - N/A   Clear
5:35 PM 46.4 °F 44.3 °F 23.0 °F 40% 30.45 in 10.0 mi NE 4.6 mph - N/A   Clear
5:55 PM 44.6 °F - 23.0 °F 43% 30.45 in 10.0 mi Calm Calm - N/A   Clear
6:15 PM 42.8 °F - 26.6 °F 53% 30.46 in 10.0 mi Calm Calm - N/A   Clear
6:35 PM 41.0 °F - 28.4 °F 61% 30.46 in 10.0 mi Calm Calm - N/A   Clear
6:55 PM 39.2 °F - 28.4 °F 65% 30.46 in 10.0 mi Calm Calm - N/A   Clear
7:15 PM 37.4 °F - 28.4 °F 70% 30.46 in 10.0 mi Calm Calm - N/A   Clear
7:35 PM 35.6 °F - 28.4 °F 75% 30.46 in 10.0 mi Calm Calm - N/A   Clear
7:55 PM 35.6 °F - 30.2 °F 81% 30.47 in 10.0 mi Calm Calm - N/A   Clear
8:15 PM 35.6 °F - 30.2 °F 81% 30.47 in 10.0 mi Calm Calm - N/A   Clear
8:35 PM 35.6 °F - 30.2 °F 81% 30.48 in 10.0 mi Calm Calm - N/A   Clear
8:55 PM 33.8 °F - 30.2 °F 87% 30.48 in 10.0 mi Calm Calm - N/A   Clear
9:15 PM 33.8 °F - 30.2 °F 87% 30.48 in 10.0 mi Calm Calm - N/A   Clear
9:35 PM 33.8 °F - 30.2 °F 87% 30.48 in 10.0 mi Calm Calm - N/A   Clear
9:55 PM 32.0 °F - 30.2 °F 93% 30.48 in 10.0 mi Calm Calm - N/A   Clear
10:15 PM 33.8 °F - 30.2 °F 87% 30.48 in 10.0 mi Calm Calm - N/A   Clear
10:35 PM 32.0 °F - 30.2 °F 93% 30.48 in 10.0 mi Calm Calm - N/A   Clear
10:55 PM 32.0 °F - 30.2 °F 93% 30.48 in 10.0 mi Calm Calm - N/A   Clear
11:15 PM 32.0 °F - 30.2 °F 93% 30.47 in 10.0 mi Calm Calm - N/A   Clear
11:35 PM 32.0 °F - 30.2 °F 93% 30.47 in 10.0 mi Calm Calm - N/A   Clear
11:55 PM 30.2 °F - 28.4 °F 93% 30.46 in 10.0 mi Calm Calm - N/A   Clear